User: anonymous   Login
Location: Niedergestelen
(46.3129°N, 7.7822°E)
Time: 22:46:37
(UTC+00:00)
Language:

Cosmos 1933 - Orbit

View from above orbital plane
View from above orbital plane
View from above satellite
View from above satellite

Ground track
Ground track

The orbit data is extracted from the following two-line orbital elements,

1 18958U 88020A   21061.43884481  .00000488  00000-0  33377-4 0  9996
2 18958  82.5276 236.4349 0011372   1.0090 359.1157 15.03865539795027
Epoch (UTC): 02 March 2021 10:31:56
Eccentricity: 0.0011372
inclination: 82.5276°
perigee height: 547 km
apogee height: 563 km
right ascension of ascending node: 236.4349°
argument of perigee: 1.0090°
revolutions per day: 15.03865539
mean anomaly at epoch: 359.1157°
orbit number at epoch: 79502

The dashed part of the orbit path shows where the satellite is in the earth's shadow,  

DLR